TimeEDT,TemperatureF,Dew PointF,Humidity,Sea Level PressureIn,VisibilityMPH,Wind Direction,Wind SpeedMPH,Gust SpeedMPH,PrecipitationIn,Events,Conditions,WindDirDegrees,DateUTC
12:51 AM,34.0,33.1,96,29.88,4.0,ESE,5.8,-,0.01,Rain,Light Rain,120,2013-03-16 04:51:00
1:51 AM,34.0,33.1,96,29.84,4.0,ESE,8.1,-,0.01,Rain,Light Rain,110,2013-03-16 05:51:00
2:51 AM,35.1,33.1,92,29.82,8.0,ESE,8.1,-,0.00,Rain,Light Rain,110,2013-03-16 06:51:00
3:51 AM,33.8,32.0,93,29.77,6.0,East,9.2,-,N/A,Rain,Light Rain,90,2013-03-16 07:51:00
4:30 AM,34.0,33.1,96,29.75,7.0,East,9.2,-,0.00,,Overcast,80,2013-03-16 08:30:00
4:42 AM,34.0,32.0,92,29.74,6.0,East,10.4,-,0.00,,Overcast,90,2013-03-16 08:42:00
4:51 AM,34.0,32.0,92,29.76,6.0,East,8.1,-,0.00,,Overcast,90,2013-03-16 08:51:00
5:51 AM,34.0,32.0,92,29.78,2.5,ENE,8.1,-,0.01,Rain,Light Rain,70,2013-03-16 09:51:00
6:12 AM,33.1,32.0,96,29.75,1.5,East,5.8,-,0.02,Snow,Light Snow,80,2013-03-16 10:12:00
6:44 AM,33.1,32.0,96,29.76,2.0,NE,9.2,-,0.05,Snow,Light Snow,40,2013-03-16 10:44:00
6:51 AM,33.1,32.0,96,29.78,2.0,NE,9.2,-,0.05,Snow,Light Snow,50,2013-03-16 10:51:00
7:08 AM,33.1,32.0,96,29.75,1.8,NE,9.2,-,0.01,Snow,Light Snow,50,2013-03-16 11:08:00
7:29 AM,33.1,32.0,96,29.74,2.0,East,8.1,-,0.02,Snow,Light Snow,80,2013-03-16 11:29:00
7:39 AM,33.1,32.0,96,29.74,1.5,East,8.1,-,0.03,Snow,Light Snow,80,2013-03-16 11:39:00
7:47 AM,33.8,32.0,93,29.73,3.0,ENE,8.1,-,0.04,Snow,Light Snow,70,2013-03-16 11:47:00
7:48 AM,33.1,32.0,96,29.75,3.0,East,8.1,-,0.04,Snow,Light Snow,80,2013-03-16 11:48:00
8:14 AM,33.1,32.0,96,29.72,4.0,East,9.2,-,N/A,,Overcast,90,2013-03-16 12:14:00
8:51 AM,34.0,32.0,92,29.75,4.0,NE,8.1,-,N/A,,Overcast,50,2013-03-16 12:51:00
9:05 AM,33.1,32.0,96,29.72,2.0,East,9.2,-,0.00,Rain,Light Rain,80,2013-03-16 13:05:00
9:12 AM,33.1,32.0,96,29.73,1.8,East,8.1,-,0.00,Rain,Light Rain,80,2013-03-16 13:12:00
9:51 AM,33.1,32.0,96,29.75,2.0,ENE,9.2,-,0.00,Rain,Light Rain,60,2013-03-16 13:51:00
10:20 AM,33.1,32.0,96,29.73,3.0,ENE,9.2,-,0.03,Rain,Rain,70,2013-03-16 14:20:00
10:39 AM,33.1,32.0,96,29.71,2.5,East,9.2,-,0.05,Rain,Light Rain,90,2013-03-16 14:39:00
10:51 AM,33.1,32.0,96,29.73,1.8,East,8.1,-,0.06,Rain,Light Rain,90,2013-03-16 14:51:00
10:58 AM,33.1,32.0,96,29.71,2.0,East,6.9,-,0.00,Rain,Light Rain,90,2013-03-16 14:58:00
11:07 AM,33.1,33.1,100,29.70,2.0,East,8.1,-,0.01,Rain,Light Rain,100,2013-03-16 15:07:00
11:24 AM,34.0,33.1,96,29.70,2.5,East,6.9,-,0.02,Rain,Light Rain,80,2013-03-16 15:24:00
11:37 AM,34.0,33.1,96,29.70,3.0,ENE,6.9,-,0.02,Rain,Light Rain,70,2013-03-16 15:37:00
11:51 AM,34.0,33.1,96,29.72,4.0,ENE,8.1,-,0.02,,Overcast,60,2013-03-16 15:51:00
12:35 PM,33.1,32.0,96,29.71,0.5,North,11.5,-,0.00,,Overcast,10,2013-03-16 16:35:00
12:51 PM,32.0,30.2,93,29.72,0.5,NNE,11.5,-,N/A,,Overcast,20,2013-03-16 16:51:00
1:05 PM,32.0,30.9,96,29.73,4.0,NNE,11.5,-,N/A,,Overcast,20,2013-03-16 17:05:00
1:51 PM,32.0,30.0,92,29.78,9.0,NNE,17.3,-,N/A,,Overcast,30,2013-03-16 17:51:00
2:03 PM,32.0,30.0,92,29.76,10.0,NNE,19.6,-,N/A,,Overcast,30,2013-03-16 18:03:00
2:51 PM,30.0,28.9,96,29.81,3.0,NNE,20.7,26.5,0.00,Snow,Light Snow,30,2013-03-16 18:51:00
2:59 PM,30.0,28.9,96,29.80,2.5,NNE,18.4,23.0,0.00,Snow,Light Snow,30,2013-03-16 18:59:00
3:07 PM,30.0,28.9,96,29.80,4.0,NE,20.7,27.6,0.00,Snow,Light Snow,40,2013-03-16 19:07:00
3:51 PM,30.0,28.0,92,29.86,5.0,NNE,15.0,26.5,0.00,,Overcast,30,2013-03-16 19:51:00
4:51 PM,30.0,27.0,88,29.90,10.0,NE,19.6,26.5,N/A,,Overcast,40,2013-03-16 20:51:00
5:19 PM,30.0,27.0,88,29.89,10.0,NNE,15.0,-,N/A,,Overcast,30,2013-03-16 21:19:00
5:51 PM,30.0,26.1,85,29.94,10.0,NNE,17.3,-,N/A,,Overcast,20,2013-03-16 21:51:00
6:28 PM,30.0,25.0,82,29.93,10.0,North,13.8,-,N/A,,Overcast,10,2013-03-16 22:28:00
6:51 PM,30.0,25.0,82,29.96,10.0,NNE,11.5,-,N/A,,Overcast,20,2013-03-16 22:51:00
7:51 PM,28.9,24.1,82,30.00,10.0,North,9.2,-,N/A,,Overcast,360,2013-03-16 23:51:00
7:58 PM,28.9,24.1,82,29.98,10.0,North,10.4,-,N/A,,Overcast,10,2013-03-16 23:58:00
8:51 PM,28.9,24.1,82,30.03,10.0,North,6.9,-,N/A,,Overcast,360,2013-03-17 00:51:00
9:00 PM,28.4,24.8,86,30.00,10.0,North,5.8,-,N/A,,Overcast,350,2013-03-17 01:00:00
9:51 PM,28.9,24.1,82,30.04,10.0,North,5.8,-,N/A,,Overcast,360,2013-03-17 01:51:00
10:51 PM,28.9,24.1,82,30.04,10.0,NNW,3.5,-,N/A,,Overcast,340,2013-03-17 02:51:00
11:51 PM,30.0,24.1,79,30.06,10.0,NNW,3.5,-,N/A,,Overcast,340,2013-03-17 03:51:00
11:58 PM,30.0,24.1,79,30.03,10.0,Calm,Calm,-,N/A,,Overcast,0,2013-03-17 03:58:00